RH
15 18 27 24 27 22 14 17 17 19 21 22 22 20 20 19 20 21 21 22 24 28 32 32 30 30 34 36 41 45 62 62 60 58 66 88 100 100 95 92 81 65 50 46
18 28 26 23 24 23 18 16 17 20 22 26 24 23 24 24 24 27 32 39 41 40 36 34 36 39 44 47 55 69 63 63 59 70 100 100 100 100 95 90 83 59 64 52
18 22 22 18 22 25 26 26 27 26 28 23 23 23 26 27 32 37 40 40 38 40 51 60 60 57 55 68 70 65 62 59 72 97 100 100 96 100 98 82 84 76 80 49
20 24 21 22 23 24 24 26 29 26 28 27 25 30 32 34 32 36 38 47 58 63 61 60 59 63 75 67 68 66 66 86 100 100 100 93 98 95 90 93 89 99 81 57
18 19 20 20 18 23 25 29 22 25 27 27 26 27 32 23 31 42 45 41 41 47 55 58 69 67 72 71 64 66 91 100 100 100 100 100 100 96 100 100 100 100 75 53
21 19 16 16 18 18 17 20 9 17 18 19 22 24 31 23 26 24 27 34 43 48 56 67 74 77 67 68 97 100 100 100 100 100 100 100 100 100 100 100 99 96 68 32
7 6 6 6 7 8 10 13 12 12 13 12 14 19 14 15 21 29 36 40 50 68 82 85 77 75 83 98 91 78 96 92 99 100 100 100 100 100 100 100 100 95 60 13
10 10 9 10 9 9 9 8 8 8 10 7 8 10 14 20 30 49 69 68 70 69 65 71 80 90 92 76 78 100 100 100 100 100 100 100 100 100 100 100 78 53 19 10
11 11 10 8 7 6 6 6 7 6 8 9 12 18 25 36 55 68 69 64 57 55 77 80 83 90 93 100 100 100 100 100 100 100 100 100 100 100 98 88 68 29 10 14
9 8 7 5 6 5 5 6 8 10 14 20 30 41 49 51 52 56 51 53 67 76 79 84 88 90 99 90 100 100 100 100 100 100 100 100 100 100 88 70 29 12 14 20
7 7 6 6 6 6 10 12 17 29 41 45 49 44 41 43 44 50 65 73 72 78 84 86 89 86 78 88 97 100 100 100 100 100 100 100 100 88 42 18 15 16 21 24
6 6 8 9 10 14 24 41 45 40 33 28 28 34 44 48 65 68 66 67 76 80 85 92 91 96 100 100 100 100 100 100 100 100 100 88 40 16 16 18 18 22 29 28
7 10 15 19 25 47 47 42 33 25 25 48 55 54 58 67 69 69 72 77 80 84 90 100 97 100 100 100 100 100 100 100 100 97 63 20 12 15 19 21 21 30 35 33
18 29 38 51 46 42 38 30 25 32 61 65 65 68 69 70 70 71 70 71 71 74 90 100 100 100 100 100 100 100 100 98 71 23 13 12 16 20 26 26 27 33 39 42
44 47 47 45 42 36 31 32 47 70 73 71 68 69 66 67 67 66 65 59 70 86 97 94 95 100 100 100 100 94 61 29 19 16 13 13 20 28 37 35 34 43 44 45
53 49 44 43 48 49 54 68 73 70 69 71 70 70 68 64 56 43 34 54 79 85 76 60 94 100 100 85 52 28 19 20 18 13 12 19 28 33 36 43 40 46 48 57
56 59 65 74 76 76 75 76 80 81 78 76 75 62 43 23 9 3 18 49 77 98 100 94 88 85 72 37 26 26 24 18 14 12 17 25 28 32 34 45 46 49 51 50
73 80 82 83 81 83 86 86 84 82 78 60 32 14 4 3 6 11 37 37 31 55 55 73 63 48 41 32 32 34 25 19 15 19 23 27 31 39 37 42 47 50 54 48
91 94 91 89 93 93 89 86 78 53 30 12 4 4 6 7 9 11 26 43 51 54 44 44 50 50 47 46 44 33 24 16 19 26 31 35 36 39 42 42 50 50 52 48
97 100 100 100 96 88 70 39 20 7 6 7 7 8 10 10 14 33 50 35 23 24 33 55 80 82 65 43 28 21 16 18 27 31 32 35 42 44 45 47 52 51 52 50
100 100 96 85 57 26 9 6 7 7 7 8 8 10 11 15 38 67 100 100 87 88 88 86 69 46 35 28 21 17 18 22 26 29 33 36 41 50 51 52 56 55 53 54
98 83 45 16 7 6 7 8 8 8 9 9 10 11 14 22 35 62 91 96 92 84 72 57 46 42 32 24 20 20 24 24 23 22 24 27 33 40 52 56 61 61 58 61
43 13 7 6 7 8 9 10 10 10 10 11 14 19 30 51 74 83 81 81 72 63 57 52 45 33 24 18 20 22 21 19 18 18 20 25 30 34 45 54 60 66 66 69
8 8 8 9 10 10 10 10 11 11 13 19 31 47 65 73 75 74 73 69 63 53 44 33 24 19 18 19 19 15 12 13 15 18 21 29 40 45 73 62 60 60 68 77
9 10 10 10 11 11 12 12 13 17 34 54 68 74 70 65 61 60 62 58 49 36 23 18 17 18 17 12 11 12 13 14 17 20 25 29 74 90 77 77 55 56 67 82
11 11 12 12 13 14 16 20 41 61 75 82 79 64 51 49 58 59 51 36 25 18 16 18 17 12 11 11 11 11 12 13 15 17 25 36 86 100 100 100 74 57 62 80
13 14 14 16 20 31 53 69 78 85 87 84 68 60 64 63 52 38 27 20 17 19 19 12 11 11 10 11 12 14 17 18 18 20 28 37 60 93 100 100 83 54 59 73
Wind_Speed
20 20 20 20 19 21 22 19 22 18 24 23 30 33 33 35 36 39 42 45 48 51 52 54 56 57 58 58 60 61 60 59 59 60 62 65 66 65 67 70 72 75 78 85
19 20 21 22 22 22 23 23 26 26 30 31 33 37 38 42 44 46 49 51 52 53 55 55 56 56 57 57 58 57 58 58 59 61 63 68 65 67 70 73 75 77 82 91
20 19 22 22 19 23 24 25 28 31 31 39 40 43 44 48 51 52 53 54 55 54 53 53 54 54 55 55 54 55 56 59 61 61 64 66 65 68 72 78 77 80 85 93
19 20 23 19 19 23 27 27 31 35 37 43 46 48 50 52 55 54 54 53 52 53 52 51 52 51 51 52 53 56 57 56 59 64 63 64 66 71 75 76 79 83 86 93
20 22 23 22 22 24 27 28 36 37 40 44 47 49 50 55 53 53 53 53 51 50 49 48 47 49 51 55 57 57 56 59 63 65 67 66 71 76 79 77 79 82 86 93
18 21 22 22 23 25 27 31 34 36 39 43 46 49 50 52 53 52 49 48 47 47 46 46 49 52 56 57 55 56 58 65 71 74 72 70 72 78 79 81 86 80 82 87
15 18 19 21 24 27 30 35 37 41 43 46 46 47 48 47 46 46 44 44 43 44 47 51 54 55 53 54 59 59 64 64 67 79 80 78 76 76 75 78 78 82 80 76
19 22 26 27 30 32 35 38 42 44 47 47 46 45 45 44 44 43 42 44 45 48 51 53 54 53 53 59 58 61 71 69 72 83 86 81 74 74 73 77 79 82 75 66
24 28 31 33 35 38 40 43 45 46 44 45 45 45 45 45 44 45 47 48 50 52 52 52 50 53 56 54 53 57 74 78 77 81 79 73 76 79 79 78 77 72 65 57
29 32 35 38 40 42 44 44 43 43 43 44 44 45 46 47 47 48 50 51 50 51 52 54 56 57 58 59 64 69 71 79 82 76 74 75 72 72 75 75 67 61 55 50
34 35 40 40 42 43 43 43 41 42 44 46 45 47 48 49 50 50 49 51 52 53 55 57 58 60 61 60 67 73 80 79 76 76 74 68 69 74 68 62 56 53 50 45
38 40 40 42 42 40 40 42 44 45 46 48 49 50 50 50 49 51 54 55 56 57 59 58 60 60 59 64 72 72 75 76 80 73 71 71 68 63 57 53 53 50 47 41
40 40 39 39 41 42 44 44 45 47 49 49 49 49 49 51 54 55 58 60 60 60 58 60 66 61 63 69 69 70 72 78 73 69 68 66 62 58 51 51 49 47 43 37
37 37 41 41 45 46 46 48 49 49 49 48 48 49 52 54 57 59 60 62 62 61 61 58 59 63 66 70 74 76 74 70 65 63 63 62 57 54 51 50 49 45 42 35
38 41 43 45 47 48 49 49 48 47 47 48 50 53 56 59 61 62 62 62 61 60 56 55 58 64 69 72 70 66 64 61 62 66 67 64 56 52 52 51 49 45 42 36
43 44 45 47 48 47 46 45 45 47 49 53 55 59 61 63 63 63 62 60 58 58 56 57 64 70 72 69 65 60 60 63 67 70 65 58 55 54 52 51 49 44 41 37
46 47 45 44 42 41 43 46 48 52 55 58 61 60 60 61 61 60 58 58 57 56 60 63 65 67 65 62 60 61 63 66 71 68 60 57 55 53 51 49 47 44 41 38
43 41 40 40 43 44 47 51 54 57 59 60 59 60 58 57 57 57 58 60 60 59 58 57 58 58 58 62 62 64 65 70 68 65 63 61 58 53 50 48 46 43 41 39
40 41 43 44 47 51 54 56 57 58 59 57 55 55 57 58 59 58 56 57 57 56 54 54 59 60 61 64 67 69 70 70 67 65 63 60 56 53 50 46 44 42 40 39
41 43 46 50 53 55 56 56 56 53 52 55 58 60 60 59 59 58 55 53 55 56 58 62 64 65 66 66 68 71 71 69 65 61 58 54 49 48 46 44 42 41 40 37
46 49 52 54 55 54 52 49 50 54 57 60 61 62 62 61 58 57 56 56 59 60 62 64 64 64 67 70 73 75 73 69 65 61 59 57 51 47 45 43 41 39 38 37
54 55 54 54 51 48 50 53 56 59 61 63 63 64 62 59 56 54 55 57 58 61 62 64 67 70 74 77 79 75 70 67 63 60 58 56 54 49 46 42 40 39 38 36
55 55 52 50 50 53 55 59 61 63 64 64 63 61 57 54 53 54 55 59 62 64 66 70 74 77 80 79 74 69 65 60 56 54 52 50 49 47 46 44 40 39 38 37
52 50 51 53 55 58 62 63 64 64 63 61 58 55 54 54 56 59 61 62 65 69 74 77 79 80 76 71 66 62 57 52 49 47 47 45 46 42 40 41 42 40 38 38
51 53 55 58 61 63 63 64 63 60 57 55 55 55 56 59 61 62 65 68 72 76 79 79 76 70 65 61 56 52 49 46 43 43 41 43 43 47 43 44 42 41 41 40
56 59 61 63 62 62 60 58 55 55 55 55 57 58 61 63 65 68 71 75 78 79 76 70 65 60 55 52 50 48 46 43 41 41 41 41 44 49 54 55 48 44 43 41
61 62 61 59 56 53 52 52 53 55 55 57 59 62 64 66 69 73 76 77 75 70 66 60 55 53 53 52 51 50 48 47 44 42 42 43 45 51 56 56 52 46 43 41
Wind_Direction
234 238 234 234 235 239 242 241 248 255 268 272 277 285 289 290 292 294 295 297 298 298 298 299 300 301 302 304 304 305 305 305 307 307 309 310 311 311 311 312 316 320 325 327
233 234 236 240 240 246 253 257 263 266 271 275 280 284 287 291 293 294 295 296 297 298 299 300 301 302 302 303 303 304 304 306 307 309 309 311 310 311 311 312 315 322 324 327
234 238 243 247 252 255 258 261 267 270 276 277 283 283 288 290 292 294 296 298 300 300 301 301 301 301 301 302 303 304 305 305 308 309 302 307 311 310 312 315 314 317 322 329
234 243 252 258 255 256 262 266 270 274 277 280 284 288 291 292 293 297 298 299 299 299 299 299 300 301 301 303 304 305 304 307 298 301 306 307 308 310 310 312 311 310 323 328
242 250 259 266 264 267 269 271 274 277 279 283 285 287 290 290 294 294 296 297 298 298 299 300 301 302 303 303 303 304 305 306 300 300 305 306 307 308 306 303 307 314 327 330
255 260 266 268 271 272 274 277 277 281 281 283 286 287 289 293 294 296 298 299 299 300 300 300 302 303 303 305 305 306 307 301 299 294 298 302 303 300 299 302 305 321 331 331
266 270 275 278 279 279 279 281 285 286 287 289 290 291 293 293 295 296 297 297 299 299 301 302 303 305 305 305 304 309 309 304 300 299 292 292 292 293 297 304 316 327 332 329
277 280 280 283 285 284 288 289 292 292 293 293 293 294 293 294 296 297 298 299 301 302 301 303 304 304 304 309 306 281 301 302 296 293 289 288 288 298 311 322 328 328 330 324
281 283 285 286 291 294 294 293 292 292 292 292 294 294 295 297 298 299 300 302 304 303 304 304 305 307 306 306 294 287 297 300 291 288 285 288 295 307 320 326 327 328 327 321
283 285 288 293 294 292 292 292 292 292 291 292 293 294 296 297 298 299 300 302 303 305 304 305 305 305 304 303 298 293 297 297 288 284 288 295 311 322 324 325 326 324 322 319
286 286 288 290 288 292 290 290 290 291 291 292 295 296 297 298 300 301 303 304 304 304 303 304 304 304 303 301 293 286 285 288 285 287 297 314 324 325 327 325 322 322 320 317
286 286 286 286 288 289 287 289 290 292 294 296 298 299 299 300 301 303 303 304 304 305 306 303 302 305 297 293 289 288 295 292 291 298 313 324 325 326 324 322 322 321 320 317
285 287 287 287 287 288 290 291 292 295 297 299 300 300 301 302 303 305 306 306 306 305 306 299 302 300 295 296 292 291 291 290 301 319 323 323 323 323 322 320 321 319 319 315
283 283 284 287 289 290 291 294 297 298 299 301 302 303 304 305 305 305 306 306 306 305 304 301 297 297 295 292 290 290 298 313 322 323 323 323 323 322 318 318 320 320 316 312
281 282 284 287 289 290 293 295 296 298 299 300 301 302 304 304 304 304 304 306 305 303 301 299 299 296 293 292 298 310 317 319 322 323 324 322 320 318 316 316 318 316 314 311
279 281 284 287 289 291 293 295 296 297 299 301 302 303 303 304 305 305 305 303 302 301 301 302 295 291 295 308 312 313 318 320 321 320 319 317 316 315 313 313 313 313 311 305
286 289 290 291 292 294 296 296 297 298 299 300 302 303 303 304 303 303 302 302 301 299 298 298 299 301 304 309 310 312 314 316 317 317 314 313 312 311 311 310 309 308 308 303
286 287 288 290 293 294 294 295 296 298 301 301 301 303 304 305 306 306 304 302 303 302 302 302 304 305 304 306 309 311 312 315 316 312 310 308 306 304 305 305 304 303 303 301
282 284 288 291 292 293 294 296 298 298 299 303 306 306 306 306 307 307 306 306 306 305 301 301 302 304 306 308 310 311 312 313 311 307 306 305 304 302 299 298 298 300 299 299
284 286 288 290 292 293 294 296 298 303 305 307 308 309 310 309 308 307 306 299 294 296 299 302 305 306 307 307 309 311 311 310 307 305 304 304 303 302 299 295 294 296 296 295
284 287 290 292 293 296 299 301 303 306 308 310 310 309 308 308 305 303 300 299 298 300 301 304 305 305 307 309 309 310 308 305 304 301 298 297 297 296 296 293 292 293 294 292
291 293 295 296 298 298 299 302 306 308 309 309 309 308 306 304 303 302 302 302 302 303 304 305 305 307 308 308 309 307 304 302 299 297 294 293 292 292 291 291 290 290 290 289
293 294 294 295 295 298 301 305 307 307 307 306 305 305 304 303 302 302 301 302 303 304 305 307 308 307 307 307 305 303 301 299 296 294 293 290 288 288 287 287 287 285 285 283
290 291 291 293 297 300 303 304 304 304 303 304 304 303 303 303 304 304 304 305 307 308 308 308 308 307 306 305 304 302 301 299 295 293 292 287 286 284 283 287 286 283 281 280
288 290 293 296 298 300 301 301 302 302 303 303 302 302 303 304 305 306 307 307 308 309 309 309 308 307 307 306 305 304 301 299 295 293 287 287 274 277 285 292 288 284 281 278
290 293 294 296 297 298 299 300 300 301 301 301 301 302 304 306 308 308 308 309 310 310 310 310 310 309 309 308 307 305 303 299 295 291 286 284 273 269 272 281 288 284 280 276
290 292 293 295 296 297 298 299 300 301 302 302 303 305 307 308 308 310 311 312 311 312 312 312 312 312 311 310 308 305 301 298 294 289 283 280 274 268 270 278 282 283 281 276